Time,TemperatureF,DewpointF,PressureIn,WindDirection,WindDirectionDegrees,WindSpeedMPH,WindSpeedGustMPH,Humidity,HourlyPrecipIn,Conditions,Clouds,dailyrainin,SoftwareType,DateUTC
2013-09-15 00:12:00,62.6,42.6,29.97,SSW,202,0.0,-999.0,48,-99.99,,,0.00,Acu-Link.com,2013-09-15 05:12:00,
2013-09-15 00:28:00,62.8,42.3,29.97,South,180,1.1,-999.0,47,-99.99,,,0.00,Acu-Link.com,2013-09-15 05:28:00,
2013-09-15 00:43:00,62.6,42.1,29.97,SSW,202,0.0,-999.0,47,-99.99,,,0.00,Acu-Link.com,2013-09-15 05:43:00,
2013-09-15 00:58:00,62.6,42.1,29.96,SSW,202,0.0,-999.0,47,-99.99,,,0.00,Acu-Link.com,2013-09-15 05:58:00,
2013-09-15 01:14:00,63.3,42.2,29.95,South,180,0.0,-999.0,46,-99.99,,,0.00,Acu-Link.com,2013-09-15 06:14:00,
2013-09-15 01:29:00,63.3,42.2,29.95,SSW,202,0.0,-999.0,46,-99.99,,,0.00,Acu-Link.com,2013-09-15 06:29:00,
2013-09-15 01:44:00,63.5,42.3,29.95,South,180,0.0,-999.0,46,-99.99,,,0.00,Acu-Link.com,2013-09-15 06:44:00,
2013-09-15 02:00:00,63.7,42.0,29.95,SSW,202,0.0,-999.0,45,-99.99,,,0.00,Acu-Link.com,2013-09-15 07:00:00,
2013-09-15 02:15:00,63.5,42.3,29.95,SSE,157,0.0,-999.0,46,-99.99,,,0.00,Acu-Link.com,2013-09-15 07:15:00,
2013-09-15 02:30:00,63.3,42.2,29.95,SW,225,1.7,-999.0,46,-99.99,,,0.00,Acu-Link.com,2013-09-15 07:30:00,
2013-09-15 02:45:00,63.1,42.5,29.95,South,180,0.0,-999.0,47,-99.99,,,0.00,Acu-Link.com,2013-09-15 07:45:00,
2013-09-15 03:01:00,63.1,42.0,29.94,SW,225,2.7,-999.0,46,-99.99,,,0.00,Acu-Link.com,2013-09-15 08:01:00,
2013-09-15 03:17:00,63.5,41.8,29.95,SSW,202,0.0,-999.0,45,-99.99,,,0.00,Acu-Link.com,2013-09-15 08:17:00,
2013-09-15 03:32:00,63.7,41.4,29.94,SSW,202,0.0,-999.0,44,-99.99,,,0.00,Acu-Link.com,2013-09-15 08:32:00,
2013-09-15 03:47:00,63.9,41.6,29.94,SSW,202,0.0,-999.0,44,-99.99,,,0.00,Acu-Link.com,2013-09-15 08:47:00,
2013-09-15 04:03:00,63.3,42.2,29.95,SE,135,0.0,-999.0,46,-99.99,,,0.00,Acu-Link.com,2013-09-15 09:03:00,
2013-09-15 04:18:00,63.3,42.2,29.98,ESE,112,0.0,-999.0,46,-99.99,,,0.00,Acu-Link.com,2013-09-15 09:18:00,
2013-09-15 04:33:00,60.6,47.9,29.97,South,180,0.0,-999.0,63,-99.99,,,0.00,Acu-Link.com,2013-09-15 09:33:00,
2013-09-15 04:48:00,59.2,51.3,29.98,East,90,0.0,-999.0,75,-99.99,,,0.00,Acu-Link.com,2013-09-15 09:48:00,
2013-09-15 05:04:00,58.6,50.7,29.96,SSE,157,0.0,-999.0,75,-99.99,,,0.00,Acu-Link.com,2013-09-15 10:04:00,
2013-09-15 05:19:00,57.9,51.1,29.95,ENE,67,0.0,-999.0,78,-99.99,,,0.00,Acu-Link.com,2013-09-15 10:19:00,
2013-09-15 05:34:00,58.1,50.9,29.95,ESE,112,0.0,-999.0,77,-99.99,,,0.00,Acu-Link.com,2013-09-15 10:34:00,
2013-09-15 05:50:00,58.1,53.0,29.96,ENE,67,0.0,-999.0,83,-99.99,,,0.00,Acu-Link.com,2013-09-15 10:50:00,
2013-09-15 06:05:00,57.6,53.4,29.97,East,90,0.0,-999.0,86,-99.99,,,0.01,Acu-Link.com,2013-09-15 11:05:00,
2013-09-15 06:20:00,57.0,56.4,29.96,ESE,112,0.0,-999.0,98,-99.99,,,0.02,Acu-Link.com,2013-09-15 11:20:00,
2013-09-15 06:35:00,57.0,56.4,29.97,SSE,157,0.0,-999.0,98,-99.99,,,0.02,Acu-Link.com,2013-09-15 11:35:00,
2013-09-15 06:51:00,57.0,56.4,29.97,ESE,112,0.0,-999.0,98,-99.99,,,0.02,Acu-Link.com,2013-09-15 11:51:00,
2013-09-15 07:06:00,56.8,56.2,29.98,ENE,67,0.0,-999.0,98,-99.99,,,0.02,Acu-Link.com,2013-09-15 12:06:00,
2013-09-15 07:21:00,56.7,56.1,29.96,South,180,0.0,-999.0,98,-99.99,,,0.05,Acu-Link.com,2013-09-15 12:21:00,
2013-09-15 07:37:00,56.3,55.7,29.96,SSE,157,0.0,-999.0,98,-99.99,,,0.10,Acu-Link.com,2013-09-15 12:37:00,
2013-09-15 07:52:00,55.9,55.3,29.95,SSE,157,0.0,-999.0,98,-99.99,,,0.14,Acu-Link.com,2013-09-15 12:52:00,
2013-09-15 08:07:00,55.9,55.3,29.94,SE,135,0.0,-999.0,98,-99.99,,,0.17,Acu-Link.com,2013-09-15 13:07:00,
2013-09-15 08:23:00,55.9,55.3,29.95,South,180,0.0,-999.0,98,-99.99,,,0.19,Acu-Link.com,2013-09-15 13:23:00,
2013-09-15 08:38:00,55.9,55.3,29.94,South,180,0.0,-999.0,98,-99.99,,,0.22,Acu-Link.com,2013-09-15 13:38:00,
2013-09-15 08:53:00,55.9,55.3,29.93,SSE,157,0.0,-999.0,98,-99.99,,,0.23,Acu-Link.com,2013-09-15 13:53:00,
2013-09-15 09:08:00,56.1,55.5,29.94,SSE,157,0.0,-999.0,98,-99.99,,,0.23,Acu-Link.com,2013-09-15 14:08:00,
2013-09-15 09:24:00,56.1,55.5,29.95,South,180,0.0,-999.0,98,-99.99,,,0.24,Acu-Link.com,2013-09-15 14:24:00,
2013-09-15 09:39:00,55.9,55.3,29.94,South,180,1.7,-999.0,98,-99.99,,,0.26,Acu-Link.com,2013-09-15 14:39:00,
2013-09-15 09:54:00,56.1,55.5,29.94,SSW,202,0.0,-999.0,98,-99.99,,,0.50,Acu-Link.com,2013-09-15 14:54:00,
2013-09-15 10:10:00,56.7,56.1,29.95,South,180,0.0,-999.0,98,-99.99,,,0.51,Acu-Link.com,2013-09-15 15:10:00,
2013-09-15 10:25:00,56.8,56.2,29.95,South,180,0.0,-999.0,98,-99.99,,,0.54,Acu-Link.com,2013-09-15 15:25:00,
2013-09-15 10:40:00,57.6,57.0,29.94,South,180,0.0,-999.0,98,-99.99,,,0.58,Acu-Link.com,2013-09-15 15:40:00,
2013-09-15 10:55:00,58.5,57.9,29.95,SSW,202,0.0,-999.0,98,-99.99,,,0.58,Acu-Link.com,2013-09-15 15:55:00,
2013-09-15 11:10:00,58.5,57.9,29.94,SSW,202,0.0,-999.0,98,-99.99,,,0.58,Acu-Link.com,2013-09-15 16:10:00,
2013-09-15 11:26:00,58.8,58.2,29.95,SSW,202,0.0,-999.0,98,-99.99,,,0.58,Acu-Link.com,2013-09-15 16:26:00,
2013-09-15 11:41:00,59.4,58.8,29.95,SSW,202,0.0,-999.0,98,-99.99,,,0.58,Acu-Link.com,2013-09-15 16:41:00,
2013-09-15 11:56:00,60.1,59.5,29.95,South,180,0.0,-999.0,98,-99.99,,,0.58,Acu-Link.com,2013-09-15 16:56:00,
2013-09-15 12:12:00,60.8,60.2,29.94,South,180,0.0,-999.0,98,-99.99,,,0.58,Acu-Link.com,2013-09-15 17:12:00,
2013-09-15 12:27:00,61.9,61.3,29.93,SSW,202,0.0,-999.0,98,-99.99,,,0.58,Acu-Link.com,2013-09-15 17:27:00,
2013-09-15 12:42:00,62.4,60.6,29.94,NW,315,0.0,-999.0,94,-99.99,,,0.58,Acu-Link.com,2013-09-15 17:42:00,
2013-09-15 12:57:00,63.1,58.8,29.96,SSW,202,0.0,-999.0,86,-99.99,,,0.58,Acu-Link.com,2013-09-15 17:57:00,
2013-09-15 13:13:00,63.3,59.4,29.96,SW,225,0.0,-999.0,87,-99.99,,,0.58,Acu-Link.com,2013-09-15 18:13:00,
2013-09-15 13:28:00,63.1,59.2,29.97,West,270,0.0,-999.0,87,-99.99,,,0.58,Acu-Link.com,2013-09-15 18:28:00,
2013-09-15 13:43:00,62.6,62.0,29.96,West,270,0.0,-999.0,98,-99.99,,,0.58,Acu-Link.com,2013-09-15 18:43:00,
2013-09-15 13:59:00,62.2,61.6,29.97,West,270,0.0,-999.0,98,-99.99,,,0.58,Acu-Link.com,2013-09-15 18:59:00,
2013-09-15 14:14:00,62.4,61.8,29.98,WNW,292,0.0,-999.0,98,-99.99,,,0.58,Acu-Link.com,2013-09-15 19:14:00,
2013-09-15 14:29:00,62.1,61.5,29.97,West,270,0.0,-999.0,98,-99.99,,,0.64,Acu-Link.com,2013-09-15 19:29:00,
2013-09-15 14:44:00,61.7,61.1,29.98,West,270,0.0,-999.0,98,-99.99,,,0.66,Acu-Link.com,2013-09-15 19:44:00,
2013-09-15 15:00:00,61.2,60.6,29.98,NNW,337,0.0,-999.0,98,-99.99,,,0.72,Acu-Link.com,2013-09-15 20:00:00,
2013-09-15 15:15:00,61.5,60.9,29.98,NNW,337,0.0,-999.0,98,-99.99,,,0.80,Acu-Link.com,2013-09-15 20:15:00,
2013-09-15 15:30:00,61.9,61.3,29.99,North,0,6.3,-999.0,98,-99.99,,,0.81,Acu-Link.com,2013-09-15 20:30:00,
2013-09-15 15:45:00,62.6,62.0,29.99,North,0,0.0,-999.0,98,-99.99,,,0.81,Acu-Link.com,2013-09-15 20:45:00,
2013-09-15 16:00:00,62.4,61.8,29.99,NNE,22,4.7,-999.0,98,-99.99,,,0.81,Acu-Link.com,2013-09-15 21:00:00,
2013-09-15 16:15:00,62.8,62.2,30.01,NNW,337,5.8,-999.0,98,-99.99,,,0.81,Acu-Link.com,2013-09-15 21:15:00,
2013-09-15 16:31:00,62.6,62.0,30.01,East,90,6.3,-999.0,98,-99.99,,,0.81,Acu-Link.com,2013-09-15 21:31:00,
2013-09-15 16:46:00,62.1,61.5,30.02,NNE,22,0.0,-999.0,98,-99.99,,,0.81,Acu-Link.com,2013-09-15 21:46:00,
2013-09-15 17:02:00,62.2,61.6,30.02,NNE,22,0.0,-999.0,98,-99.99,,,0.81,Acu-Link.com,2013-09-15 22:02:00,
2013-09-15 17:17:00,62.2,61.6,30.04,NNE,22,3.7,-999.0,98,-99.99,,,0.81,Acu-Link.com,2013-09-15 22:17:00,
2013-09-15 17:32:00,62.1,58.2,30.05,NE,45,4.7,-999.0,87,-99.99,,,0.81,Acu-Link.com,2013-09-15 22:32:00,
2013-09-15 17:47:00,61.7,57.5,30.06,NE,45,8.9,-999.0,86,-99.99,,,0.81,Acu-Link.com,2013-09-15 22:47:00,
2013-09-15 18:03:00,61.7,57.5,30.06,ESE,112,4.7,-999.0,86,-99.99,,,0.81,Acu-Link.com,2013-09-15 23:03:00,
2013-09-15 18:18:00,61.2,57.0,30.07,NNE,22,5.3,-999.0,86,-99.99,,,0.81,Acu-Link.com,2013-09-15 23:18:00,
2013-09-15 18:33:00,61.0,57.1,30.08,NE,45,7.3,-999.0,87,-99.99,,,0.81,Acu-Link.com,2013-09-15 23:33:00,
2013-09-15 18:48:00,61.0,57.1,30.09,ENE,67,5.8,-999.0,87,-99.99,,,0.81,Acu-Link.com,2013-09-15 23:48:00,
2013-09-15 19:04:00,60.8,57.2,30.09,NNE,22,5.3,-999.0,88,-99.99,,,0.81,Acu-Link.com,2013-09-16 00:04:00,
2013-09-15 19:19:00,60.6,56.7,30.09,ENE,67,4.7,-999.0,87,-99.99,,,0.81,Acu-Link.com,2013-09-16 00:19:00,
2013-09-15 19:34:00,60.6,56.7,30.10,NNE,22,6.8,-999.0,87,-99.99,,,0.81,Acu-Link.com,2013-09-16 00:34:00,
2013-09-15 19:49:00,60.6,56.4,30.11,NE,45,3.7,-999.0,86,-99.99,,,0.81,Acu-Link.com,2013-09-16 00:49:00,
2013-09-15 20:05:00,60.4,56.2,30.11,SW,225,6.8,-999.0,86,-99.99,,,0.81,Acu-Link.com,2013-09-16 01:05:00,
2013-09-15 20:20:00,60.4,56.2,30.12,NE,45,6.3,-999.0,86,-99.99,,,0.81,Acu-Link.com,2013-09-16 01:20:00,
2013-09-15 20:35:00,60.4,55.9,30.13,ENE,67,6.8,-999.0,85,-99.99,,,0.81,Acu-Link.com,2013-09-16 01:35:00,
2013-09-15 20:50:00,60.3,55.8,30.14,East,90,5.3,-999.0,85,-99.99,,,0.81,Acu-Link.com,2013-09-16 01:50:00,
2013-09-15 21:05:00,60.1,55.9,30.14,NE,45,3.2,-999.0,86,-99.99,,,0.81,Acu-Link.com,2013-09-16 02:05:00,
2013-09-15 21:20:00,59.0,55.1,30.15,NNE,22,6.8,-999.0,87,-99.99,,,0.81,Acu-Link.com,2013-09-16 02:20:00,
2013-09-15 21:36:00,58.5,54.6,30.16,NE,45,2.7,-999.0,87,-99.99,,,0.81,Acu-Link.com,2013-09-16 02:36:00,
2013-09-15 21:51:00,57.6,57.0,30.16,NE,45,0.0,-999.0,98,-99.99,,,0.81,Acu-Link.com,2013-09-16 02:51:00,
2013-09-15 22:06:00,56.8,56.2,30.17,NNE,22,0.0,-999.0,98,-99.99,,,0.81,Acu-Link.com,2013-09-16 03:06:00,
2013-09-15 22:21:00,55.9,55.3,30.17,NNE,22,0.0,-999.0,98,-99.99,,,0.81,Acu-Link.com,2013-09-16 03:21:00,
2013-09-15 22:37:00,55.4,54.8,30.17,ENE,67,0.0,-999.0,98,-99.99,,,0.81,Acu-Link.com,2013-09-16 03:37:00,
2013-09-15 22:52:00,54.7,54.1,30.18,NNE,22,0.0,-999.0,98,-99.99,,,0.81,Acu-Link.com,2013-09-16 03:52:00,
2013-09-15 23:07:00,54.5,53.9,30.18,North,0,0.0,-999.0,98,-99.99,,,0.81,Acu-Link.com,2013-09-16 04:07:00,
2013-09-15 23:22:00,54.0,53.4,30.18,North,0,0.0,-999.0,98,-99.99,,,0.81,Acu-Link.com,2013-09-16 04:22:00,
2013-09-15 23:38:00,53.6,53.0,30.18,North,0,0.0,-999.0,98,-99.99,,,0.81,Acu-Link.com,2013-09-16 04:38:00,
2013-09-15 23:53:00,53.4,52.8,30.19,North,0,0.0,-999.0,98,-99.99,,,0.81,Acu-Link.com,2013-09-16 04:53:00,